Location: BGSU Observatory
(41.3799°N, 83.6397°W)
Time: 09:42:13
(UTC-04:00)

Amateur Radio Satellites - All Passes

Search period start: 18 September 2014 09:12
Search period end: 19 September 2014 09:12
Location: BGSU Observatory, 41.3799°N, 83.6397°W

Satellite Date Start Highest point End Downlink Frequencies (MHz)
Time Altitude Azimuth
JAS-2 18 Sep 09:20:24 09:23:58 17° 299° (WNW) 09:27:46 435.800 - 435.900 CW/SSB, 435.910 FM
ISS 18 Sep 09:43:38 09:46:45 36° 27° (NNE) 09:49:51 145.800 FM
SO-67 18 Sep 09:43:45 09:45:59 17° 292° (WNW) 09:48:13 435.3500 MHz FM
Oscar 11 18 Sep 10:09:24 10:11:02 12° 90° (E) 10:12:40 145.825 FM, Beacon 2401.500 USB
UKube-1 18 Sep 10:22:59 10:26:28 23° 95° (E) 10:29:56 145.840 MHz, 145.915 MHz
UOSAT-12 18 Sep 10:46:09 10:50:44 52° 242° (WSW) 10:55:14 437.025 FM, 437.400 FM
MaSat-1 18 Sep 10:47:42 10:51:57 27° 306° (NW) 10:56:08 437.345 MHz
HO-68 18 Sep 10:55:35 11:02:49 89° 107° (ESE) 11:10:00 435.675 MHz FM
RS-15 18 Sep 11:11:26 11:19:31 22° 14° (NNE) 11:27:44 29.354 - 29.394 USB, Beacon 29.352 USB
ISS 18 Sep 11:20:27 11:23:24 30° 224° (SW) 11:26:21 145.800 FM
FUNcube-1 18 Sep 11:29:00 11:33:20 38° 97° (E) 11:37:36 145.950 - 145.970 MHz USB
Oscar 11 18 Sep 11:43:18 11:47:37 61° 286° (WNW) 11:51:52 145.825 FM, Beacon 2401.500 USB
UKube-1 18 Sep 11:58:49 12:02:41 32° 291° (WNW) 12:06:32 145.840 MHz, 145.915 MHz
Sapphire 18 Sep 12:11:00 12:14:02 15° 104° (ESE) 12:17:05 437.095 MHz 1200 baud AX-25 AFSK
PCSat 18 Sep 12:36:21 12:40:55 29° 109° (ESE) 12:45:31 145.825 MHz
HO-68 18 Sep 12:44:54 12:49:35 19° 305° (NW) 12:54:16 435.675 MHz FM
Oscar 16 18 Sep 12:50:10 12:52:56 15° 60° (ENE) 12:55:41 437.025 USB, Beacon 2401.1428
FUNcube-1 18 Sep 13:05:55 13:09:27 22° 294° (WNW) 13:12:59 145.950 - 145.970 MHz USB
RS-15 18 Sep 13:24:43 13:35:25 50° 46° (NE) 13:46:28 29.354 - 29.394 USB, Beacon 29.352 USB
ITAMSAT 1 18 Sep 13:30:39 13:33:23 15° 60° (ENE) 13:36:07 435.822 SSB
Uribyol 2 18 Sep 13:34:39 13:37:52 17° 61° (ENE) 13:41:05 436.500 FM
Oscar 19 18 Sep 13:48:08 13:53:05 46° 70° (ENE) 13:58:03 437.125 CW, 437.150 USB
JAS-1B 18 Sep 13:48:43 13:56:19 37° 66° (ENE) 14:02:51 435.800 - 435.900 CW/SSB
Sapphire 18 Sep 13:51:24 13:56:47 73° 301° (WNW) 14:02:14 437.095 MHz 1200 baud AX-25 AFSK
AO-27 18 Sep 14:03:17 14:07:40 29° 66° (ENE) 14:12:04 436.795 MHz FM
PCSat 18 Sep 14:19:02 14:24:08 41° 306° (NW) 14:29:17 145.825 MHz
Oscar 16 18 Sep 14:26:26 14:31:37 77° 257° (WSW) 14:36:51 437.025 USB, Beacon 2401.1428
Oscar 10/S400 18 Sep 14:46:26 14:59:56 18° 147° (SSE) 15:11:34 145.825 - 145.975 CW/USB, Beacon 145.810 USB
Gurwin Techsat 1B 18 Sep 14:47:48 14:52:34 35° 68° (ENE) 14:57:20 435.225 FM
AO-Echo 18 Sep 14:50:50 14:55:36 87° 76° (ENE) 15:00:20 ?
ITAMSAT 1 18 Sep 15:07:04 15:12:13 76° 257° (WSW) 15:17:25 435.822 SSB
Uribyol 2 18 Sep 15:11:41 15:16:47 65° 258° (WSW) 15:21:58 436.500 FM
TMSAT-1 18 Sep 15:25:15 15:30:23 56° 72° (ENE) 15:35:34 436.925 FM
Oscar 19 18 Sep 15:28:41 15:32:37 22° 267° (W) 15:36:35 437.125 CW, 437.150 USB
RS-15 18 Sep 15:37:17 15:47:52 53° 248° (WSW) 15:58:55 29.354 - 29.394 USB, Beacon 29.352 USB
AO-7 18 Sep 15:38:04 15:45:09 33° 58° (ENE) 15:52:14 29.400 - 29.500 MHz
JAS-1B 18 Sep 15:38:17 15:46:44 49° 260° (W) 15:53:55 435.800 - 435.900 CW/SSB
Sapphire 18 Sep 15:38:25 15:41:12 14° 321° (NW) 15:44:01 437.095 MHz 1200 baud AX-25 AFSK
AO-27 18 Sep 15:42:21 15:47:03 35° 263° (W) 15:51:47 436.795 MHz FM
Uosat F 18 Sep 16:00:49 16:04:35 22° 64° (ENE) 16:08:22 435.120 FM
Gurwin Techsat 1B 18 Sep 16:27:55 16:32:31 30° 264° (W) 16:37:09 435.225 FM
TMSAT-1 18 Sep 17:07:05 17:10:39 18° 268° (W) 17:14:15 436.925 FM
AO-7 18 Sep 17:29:18 17:37:29 60° 257° (WSW) 17:45:41 29.400 - 29.500 MHz
Uosat F 18 Sep 17:38:18 17:43:04 45° 261° (W) 17:47:52 435.120 FM
JAS-2 18 Sep 17:47:30 17:52:04 31° 67° (ENE) 17:56:34 435.800 - 435.900 CW/SSB, 435.910 FM
Saudisat 1A 18 Sep 17:55:40 17:59:44 38° 116° (ESE) 18:03:49 436.775 MHz
Hamsat 18 Sep 17:57:37 18:01:25 30° 70° (ENE) 18:05:12 145.90 MHz
OPAL 18 Sep 18:34:59 18:40:12 89° 108° (ESE) 18:45:18 ?
SO-67 18 Sep 18:45:38 18:46:14 10° 65° (ENE) 18:46:51 435.3500 MHz FM
MaSat-1 18 Sep 19:03:40 19:07:35 82° 64° (ENE) 19:10:53 437.345 MHz
STRAND 1 18 Sep 19:15:20 19:18:22 16° 91° (E) 19:21:24 ?
JAS-2 18 Sep 19:32:33 19:37:11 30° 264° (W) 19:41:43 435.800 - 435.900 CW/SSB, 435.910 FM
Hamsat 18 Sep 19:33:47 19:37:21 24° 266° (W) 19:40:56 145.90 MHz
Saudisat 1A 18 Sep 19:35:42 19:39:24 26° 314° (NW) 19:43:07 436.775 MHz
HO-68 18 Sep 19:41:06 19:44:21 14° 50° (NE) 19:47:35 435.675 MHz FM
SO-67 18 Sep 20:15:30 20:18:50 46° 261° (W) 20:22:11 435.3500 MHz FM
OPAL 18 Sep 20:16:01 20:18:18 13° 304° (NW) 20:20:34 ?
KITSAT 1 18 Sep 20:18:06 20:26:01 62° 114° (ESE) 20:33:57 435.175 FM
STRAND 1 18 Sep 20:52:54 20:57:58 62° 287° (WNW) 21:03:02 ?
Sapphire 18 Sep 20:57:10 21:00:37 17° 41° (NE) 21:04:03 437.095 MHz 1200 baud AX-25 AFSK
Oscar 11 18 Sep 21:05:50 21:06:50 11° 61° (ENE) 21:07:49 145.825 FM, Beacon 2401.500 USB
UKube-1 18 Sep 21:18:56 21:22:13 21° 66° (ENE) 21:25:30 145.840 MHz, 145.915 MHz
PCSat 18 Sep 21:23:41 21:28:15 26° 48° (NE) 21:32:46 145.825 MHz
HO-68 18 Sep 21:23:42 21:30:45 68° 70° (ENE) 21:37:51 435.675 MHz FM
KITSAT 1 18 Sep 22:14:36 22:21:52 35° 316° (NW) 22:29:10 435.175 FM
FUNcube-1 18 Sep 22:25:37 22:29:28 31° 69° (ENE) 22:33:25 145.950 - 145.970 MHz USB
Oscar 11 18 Sep 22:38:00 22:42:22 78° 258° (WSW) 22:46:45 145.825 FM, Beacon 2401.500 USB
Sapphire 18 Sep 22:39:21 22:44:49 90° 62° (ENE) 22:50:14 437.095 MHz 1200 baud AX-25 AFSK
UKube-1 18 Sep 22:54:14 22:58:12 35° 262° (W) 23:02:11 145.840 MHz, 145.915 MHz
PCSat 18 Sep 23:06:41 23:11:55 50° 247° (WSW) 23:17:06 145.825 MHz
HO-68 18 Sep 23:13:39 23:18:59 22° 267° (W) 23:24:22 435.675 MHz FM
SO-50 18 Sep 23:14:17 23:18:36 50° 118° (ESE) 23:23:02 436.795 FM
FUNcube-1 19 Sep 00:02:16 00:05:51 25° 266° (W) 00:09:33 145.950 - 145.970 MHz USB
KITSAT 1 19 Sep 00:16:40 00:20:12 13° 343° (NNW) 00:23:43 435.175 FM
Sapphire 19 Sep 00:25:36 00:27:24 12° 258° (WSW) 00:29:12 437.095 MHz 1200 baud AX-25 AFSK
SO-50 19 Sep 00:55:55 00:59:26 22° 317° (NW) 01:03:03 436.795 FM
UOSAT-12 19 Sep 00:57:06 01:01:30 46° 117° (ESE) 01:06:01 437.025 FM, 437.400 FM
Oscar 19 19 Sep 02:00:59 02:04:06 16° 91° (E) 02:07:13 437.125 CW, 437.150 USB
AO-40 19 Sep 02:14:44 03:03:37 12° 237° (WSW) 04:08:49 Beacon 2401.320
KITSAT 1 19 Sep 02:16:47 02:20:02 13° 15° (NNE) 02:23:17 435.175 FM
Saudisat 1A 19 Sep 02:22:10 02:26:11 33° 49° (NE) 02:30:11 436.775 MHz
UOSAT-12 19 Sep 02:38:04 02:41:53 24° 316° (NW) 02:45:45 437.025 FM, 437.400 FM
Oscar 16 19 Sep 02:38:22 02:43:11 38° 98° (E) 02:47:57 437.025 USB, Beacon 2401.1428
AO-Echo 19 Sep 02:58:02 03:02:10 27° 96° (E) 03:06:22 ?
Gurwin Techsat 1B 19 Sep 03:05:28 03:07:57 13° 89° (E) 03:10:26 435.225 FM
ITAMSAT 1 19 Sep 03:20:04 03:24:56 38° 98° (E) 03:29:46 435.822 SSB
JAS-1B 19 Sep 03:23:55 03:29:27 46° 99° (E) 03:34:55 435.800 - 435.900 CW/SSB
Uribyol 2 19 Sep 03:24:23 03:29:24 45° 99° (E) 03:34:23 436.500 FM
Oscar 10/S400 19 Sep 03:31:10 04:39:57 29° 240° (WSW) 08:05:49 145.825 - 145.975 CW/USB, Beacon 145.810 USB
Oscar 19 19 Sep 03:38:45 03:43:52 61° 287° (WNW) 03:48:55 437.125 CW, 437.150 USB
TMSAT-1 19 Sep 03:41:44 03:45:49 22° 93° (E) 03:49:52 436.925 FM
RS-15 19 Sep 03:51:06 03:59:36 27° 103° (ESE) 04:07:58 29.354 - 29.394 USB, Beacon 29.352 USB
AO-27 19 Sep 03:54:38 03:59:53 82° 104° (ESE) 04:05:06 436.795 MHz FM
Saudisat 1A 19 Sep 04:01:54 04:05:40 28° 246° (WSW) 04:09:24 436.775 MHz
ISS 19 Sep 04:02:13 04:05:32 84° 143° (SE) 04:08:53 145.800 FM
KITSAT 1 19 Sep 04:11:22 04:18:30 33° 43° (NE) 04:25:36 435.175 FM
OPAL 19 Sep 04:12:47 04:16:38 22° 61° (ENE) 04:20:31 ?
Oscar 16 19 Sep 04:18:03 04:22:21 27° 294° (WNW) 04:26:37 437.025 USB, Beacon 2401.1428
PANSAT 19 Sep 04:23:02 04:24:31 12° 179° (S) 04:25:59 not established
AO-Echo 19 Sep 04:36:38 04:40:56 33° 291° (WNW) 04:45:20 ?
Gurwin Techsat 1B 19 Sep 04:43:10 04:48:29 76° 286° (WNW) 04:53:46 435.225 FM
ITAMSAT 1 19 Sep 04:59:55 05:04:14 27° 294° (WNW) 05:08:33 435.822 SSB
Uribyol 2 19 Sep 05:04:30 05:08:35 24° 296° (WNW) 05:12:39 436.500 FM
JAS-1B 19 Sep 05:15:24 05:19:51 23° 298° (WNW) 05:24:13 435.800 - 435.900 CW/SSB
TMSAT-1 19 Sep 05:20:53 05:25:57 47° 290° (WNW) 05:30:59 436.925 FM
AO-7 19 Sep 05:30:41 05:38:38 48° 101° (E) 05:46:32 29.400 - 29.500 MHz
AO-27 19 Sep 05:36:11 05:38:41 14° 301° (WNW) 05:41:12 436.795 MHz FM
ISS 19 Sep 05:39:58 05:42:36 21° 342° (NNW) 05:45:13 145.800 FM
Uosat F 19 Sep 05:45:38 05:50:34 55° 101° (E) 05:55:29 435.120 FM
OPAL 19 Sep 05:50:06 05:55:08 52° 258° (WSW) 06:00:14 ?
RS-15 19 Sep 05:59:37 06:10:41 81° 304° (WNW) 06:21:41 29.354 - 29.394 USB, Beacon 29.352 USB
KITSAT 1 19 Sep 06:06:30 06:14:29 67° 244° (WSW) 06:22:26 435.175 FM
SO-50 19 Sep 06:08:19 06:08:34 10° 32° (NNE) 06:08:50 436.795 FM
Gurwin Techsat 1B 19 Sep 06:26:37 06:27:31 10° 303° (WNW) 06:28:26 435.225 FM
STRAND 1 19 Sep 06:31:09 06:35:08 24° 65° (ENE) 06:39:09 ?
JAS-2 19 Sep 06:38:57 06:44:19 32° 97° (E) 06:50:14 435.800 - 435.900 CW/SSB, 435.910 FM
ISS 19 Sep 07:18:22 07:20:15 14° 2° (N) 07:22:08 145.800 FM
Hamsat 19 Sep 07:18:35 07:22:49 58° 100° (E) 07:26:57 145.90 MHz
AO-7 19 Sep 07:23:44 07:31:15 40° 299° (WNW) 07:38:46 29.400 - 29.500 MHz
Uosat F 19 Sep 07:25:30 07:28:55 19° 297° (WNW) 07:32:21 435.120 FM
SO-67 19 Sep 07:40:53 07:41:59 11° 91° (E) 07:43:04 435.3500 MHz FM
SO-50 19 Sep 07:45:37 07:50:17 49° 52° (NE) 07:55:00 436.795 FM
KITSAT 1 19 Sep 08:06:06 08:08:20 11° 263° (W) 08:10:35 435.175 FM
STRAND 1 19 Sep 08:09:16 08:14:04 42° 261° (W) 08:18:54 ?
RS-15 19 Sep 08:15:52 08:25:00 29° 331° (NNW) 08:34:13 29.354 - 29.394 USB, Beacon 29.352 USB
JAS-2 19 Sep 08:23:52 08:29:25 42° 290° (WNW) 08:35:39 435.800 - 435.900 CW/SSB, 435.910 FM
MaSat-1 19 Sep 08:48:38 08:53:11 36° 108° (ESE) 08:57:44 437.345 MHz
ISS 19 Sep 08:54:58 08:57:50 25° 22° (NNE) 09:00:40 145.800 FM
HO-68 19 Sep 08:55:35 08:57:01 11° 86° (E) 08:58:26 435.675 MHz FM
Hamsat 19 Sep 08:56:17 08:58:15 13° 297° (WNW) 09:00:12 145.90 MHz
